Dewpoint
-8 -8 -9 -9 -10 -11 -10 -9 -9 -8 -7 -7 -2 -2 0 1 5 6 7 4 1 1 -0 -0 -4 -2 8 7 7 7 7 7 7 7 6 7 6 7 7 7 8 8 7
-8 -8 -9 -8 -9 -10 -9 -8 -8 -8 -5 -6 2 2 1 4 6 7 7 6 2 1 -0 -2 -1 -2 -1 2 5 5 7 7 7 6 6 6 7 7 6 6 6 8 8
-7 -8 -10 -7 -9 -8 -8 -8 -8 -8 -7 -7 -1 1 1 0 5 6 6 5 6 5 1 0 -0 -0 -0 -0 2 5 6 7 6 5 5 7 7 7 6 5 5 5 5
-7 -8 -9 -7 -8 -7 -7 -7 -8 -9 -7 -8 -9 -4 -1 1 4 5 5 5 5 3 5 1 -3 -4 -3 -3 -2 0 1 6 5 5 5 7 7 7 6 6 5 5 5
-6 -7 -8 -7 -8 -6 -6 -7 -6 -8 -9 -10 -9 -5 -4 -2 2 2 5 5 5 -2 -1 0 -4 -5 -7 -9 -7 -5 -3 -1 5 5 6 6 7 6 6 6 7 5 4
-5 -7 -6 -7 -6 -6 -6 -8 -9 -9 -5 -10 -12 0 -3 -3 -3 3 -1 -0 2 -2 -1 -3 -4 -3 -4 -4 -6 -8 -7 -6 -2 5 6 7 6 6 6 6 6 6 6
-5 -7 -6 -6 -6 -6 -8 -8 -9 -9 -5 -12 -10 -9 -0 -1 -2 1 3 -1 2 -0 -0 1 -2 -4 -3 -3 -3 -7 -9 -5 -7 -2 3 6 5 5 5 6 5 7 7
-5 -4 -6 -6 -7 -8 -7 -9 -10 -11 -6 -6 -7 -3 -1 -1 1 -3 -2 -0 2 3 1 2 0 -3 -4 -5 -4 -4 -9 -6 -1 0 -2 -4 2 5 6 5 6 6 6
-4 -6 -5 -6 -8 -8 -9 -10 -11 -11 -9 -3 -2 -2 -1 -2 -2 -0 -1 -1 -0 1 0 -0 0 -1 -1 -4 -3 -6 -8 -6 -6 -2 -4 -10 -15 -2 4 5 5 5 6
-5 -5 -6 -7 -7 -8 -9 -10 -10 -9 -8 -7 -5 1 1 2 2 1 -2 -1 -0 1 2 2 1 -1 -2 -5 -4 -4 -4 -4 -5 -8 -11 -10 -12 0 3 3 -1 -3 3
-5 -6 -7 -7 -7 -8 -9 -9 -8 -8 -8 -8 -7 -6 -3 1 2 3 3 1 0 0 -1 0 0 -0 -1 -3 -4 -3 -3 -2 -3 -5 -7 -6 -6 -4 3 -2 -17 -19 -17
-5 -6 -6 -7 -7 -8 -9 -9 -8 -8 -8 -8 -7 -5 -0 1 0 2 1 0 0 -4 1 0 -1 -2 -2 -2 -4 -3 -2 -2 -1 -3 -4 -3 -0 -3 -6 -12 -17 -20 -22
-5 -6 -6 -7 -7 -7 -8 -8 -8 -8 -7 -7 -8 -7 -7 -5 -3 -2 1 1 2 -4 -5 -6 -0 1 1 -2 -3 -3 -3 -2 -1 -1 -2 -1 0 -0 -3 -7 -12 -17 -20
-5 -6 -6 -6 -7 -7 -7 -7 -7 -7 -7 -7 -7 -7 -7 -6 -3 -2 0 1 2 2 -2 -5 -4 0 2 1 -2 -3 -3 -2 -1 -1 -1 -1 -1 -0 -1 -3 -7 -13 -17
-5 -6 -6 -6 -6 -6 -6 -6 -6 -6 -6 -6 -6 -6 -6 -6 -5 -4 -4 -2 1 2 1 -3 -4 -5 -3 0 2 2 0 1 2 2 -1 -2 -1 -1 -0 -1 -3 -9 -13
-5 -5 -5 -5 -5 -4 -4 -4 -4 -4 -4 -5 -5 -5 -5 -5 -5 -6 -4 -2 -2 1 2 1 -2 -7 -6 -7 -6 -1 1 -1 -3 -2 -1 -2 -2 -1 0 -0 -1 -3 -9
-4 -3 -3 -3 -3 -3 -3 -3 -3 -3 -3 -4 -4 -4 -4 -5 -4 -4 -5 -3 -2 -1 0 -0 -0 -1 -6 -3 -6 -5 -0 1 1 -1 1 2 0 -1 0 0 -0 -1 -4
-3 -3 -3 -4 -4 -5 -7 -8 -8 -8 -7 -6 -6 -5 -5 -5 -5 -5 -5 -3 -1 -1 -1 -1 -1 -1 -1 -4 -2 -2 -0 1 -1 -2 1 1 2 -0 0 1 0 -0 -2
-4 -7 -9 -11 -12 -17 -21 -22 -18 -14 -15 -13 -9 -6 -7 -6 -6 -5 -5 -3 -3 -2 -1 -1 -1 -1 -1 -0 -3 -4 -3 -3 -1 -0 1 1 0 0 1 1 1 0 -0
-11 -15 -18 -25 -29 -29 -29 -27 -26 -27 -22 -17 -13 -11 -10 -8 -8 -8 -12 -13 -12 -6 -2 -2 -2 -1 -2 -3 -2 -1 -1 -1 -0 -1 -0 -0 0 0 0 1 1 1 0
-28 -29 -30 -27 -26 -26 -26 -27 -26 -26 -25 -23 -20 -14 -10 -10 -12 -13 -14 -16 -13 -5 -2 -2 -2 -2 -2 -2 -2 -2 -2 -2 -2 -1 -2 -2 -1 -0 -0 1 1 1 1
-28 -27 -26 -25 -26 -26 -25 -24 -23 -24 -25 -24 -19 -15 -12 -11 -12 -13 -14 -11 -6 -4 -2 -2 -2 -2 -2 -2 -2 -3 -4 -3 -2 -2 -2 -2 -1 -2 -2 -1 0 0 1
-25 -25 -25 -24 -22 -21 -21 -21 -22 -23 -25 -26 -23 -13 -10 -9 -9 -8 -10 -9 -11 -12 -4 -3 -3 -3 -3 -3 -3 -2 -2 -3 -3 -3 -2 -2 -2 -2 -2 -1 -1 -0 -2
-26 -24 -20 -18 -17 -18 -19 -18 -20 -23 -25 -25 -19 -13 -12 -11 -10 -9 -7 -7 -11 -12 -11 -7 -6 -5 -7 -5 -5 -5 -4 -3 -2 -2 -2 -2 -3 -2 -2 -2 -1 -1 -0
-21 -20 -18 -14 -13 -13 -15 -16 -19 -24 -24 -18 -13 -13 -13 -12 -12 -10 -9 -8 -7 -7 -8 -7 -6 -6 -7 -7 -5 -6 -6 -3 -3 -3 -3 -3 -2 -3 -3 -2 -2 -1 -1
-17 -15 -16 -15 -14 -13 -13 -15 -18 -20 -19 -15 -17 -16 -14 -13 -11 -9 -7 -7 -7 -9 -6 -6 -6 -6 -6 -5 -4 -5 -7 -6 -4 -4 -3 -2 -2 -2 -2 -3 -3 -2 -2
Wind_Speed
5 6 8 9 11 12 12 13 15 16 16 16 14 12 9 7 5 4 9 9 7 9 11 13 13 12 9 8 8 9 9 8 8 10 9 10 8 7 5 6 6 6 6
4 6 7 8 10 10 11 13 15 16 14 15 12 10 9 8 6 4 2 11 9 10 11 11 12 12 11 10 11 11 12 12 10 10 8 8 7 9 9 9 11 13 12
4 5 6 8 9 9 11 13 14 14 14 14 11 12 9 6 5 5 5 4 10 15 13 11 13 13 13 13 14 14 13 11 9 7 9 7 8 10 10 11 13 15 17
4 5 6 7 8 10 12 14 15 15 14 14 13 11 9 8 5 4 7 7 8 7 11 15 15 16 15 17 16 16 14 11 10 8 8 7 8 11 12 14 15 15 14
4 4 5 7 8 9 12 13 13 15 14 14 14 12 10 8 7 6 8 10 10 10 11 13 16 18 19 18 19 18 17 13 10 8 10 10 10 12 12 13 15 15 15
4 4 5 6 7 9 11 13 14 14 13 16 15 11 13 8 9 5 11 10 10 11 12 15 16 17 20 20 18 17 17 15 12 9 11 11 12 13 15 15 18 16 14
3 3 4 5 8 10 12 14 15 15 14 16 14 15 8 14 9 9 15 10 11 13 15 18 17 21 18 21 22 20 17 14 14 12 9 10 10 13 17 17 21 14 13
2 2 2 5 8 10 12 14 15 15 11 15 15 11 6 6 5 18 14 12 11 12 15 18 19 23 21 21 20 19 17 13 11 11 14 13 11 10 17 18 14 15 15
2 1 3 5 8 11 13 14 14 14 14 11 14 8 7 5 20 5 13 14 16 14 17 17 20 20 20 20 19 18 15 12 13 12 12 14 15 12 15 18 14 15 16
2 1 3 7 9 11 12 13 13 12 13 12 11 9 9 9 5 11 8 16 13 18 20 20 22 19 18 19 17 15 16 16 15 14 13 14 14 14 15 17 16 17 16
2 2 5 8 10 11 12 12 13 12 13 13 13 13 11 10 11 12 21 19 23 18 24 20 23 23 16 17 18 18 18 17 17 16 15 16 17 16 14 17 18 18 18
3 3 7 9 11 12 13 13 13 14 14 13 13 13 11 11 14 13 18 24 25 27 19 25 21 20 17 19 18 16 18 18 18 17 18 19 19 18 19 18 18 18 19
3 6 8 10 12 13 14 14 15 15 15 15 15 15 15 15 17 18 19 23 23 29 30 25 17 19 21 18 19 18 17 18 20 20 22 24 23 22 22 20 19 18 17
4 7 9 11 12 14 15 15 15 16 16 17 17 17 18 18 18 19 20 22 26 24 28 25 23 16 16 19 20 22 23 22 23 26 28 27 26 24 23 22 20 19 17
5 8 10 12 13 14 15 16 16 16 17 18 19 20 20 21 21 21 22 23 22 26 23 24 25 24 22 22 23 25 26 25 26 29 29 28 28 26 24 22 21 21 20
7 9 11 12 14 16 17 18 18 18 20 20 20 22 23 23 23 24 24 24 25 26 32 25 29 32 31 31 30 27 29 29 28 29 32 29 27 28 27 24 22 22 20
8 10 12 14 16 17 18 19 20 21 22 24 24 24 24 25 25 27 27 26 26 27 31 31 27 26 33 32 34 33 29 27 28 27 29 27 25 27 28 28 25 23 21
11 13 15 16 17 19 21 22 22 23 24 24 26 26 27 27 28 29 29 27 25 26 29 33 28 27 25 31 32 30 29 32 31 27 27 29 28 28 29 29 28 26 24
14 15 16 16 17 18 19 20 20 21 23 24 24 25 27 27 27 28 27 27 28 28 30 32 31 27 24 21 30 31 33 34 32 25 24 26 30 28 30 31 30 28 26
14 14 14 15 17 19 20 21 24 26 27 27 26 27 29 27 27 27 30 31 32 31 28 28 30 29 33 34 29 29 29 27 28 23 26 26 27 30 28 30 30 29 27
13 15 17 18 19 21 22 24 27 28 29 30 30 27 26 26 27 28 29 31 30 28 30 30 30 30 32 28 27 27 30 30 32 31 31 25 23 22 21 23 26 28 28
16 18 20 22 25 26 26 26 27 28 28 29 29 29 28 28 29 27 27 27 28 28 28 30 31 30 27 27 29 28 29 32 32 26 24 25 22 26 27 26 24 24 25
21 24 27 28 27 26 27 27 27 28 29 28 28 27 28 27 26 27 28 27 27 27 27 28 29 30 30 25 26 25 28 30 32 29 27 34 29 27 24 25 23 22 21
27 28 29 29 30 31 31 29 30 28 28 28 26 24 25 26 26 27 30 32 32 30 27 29 29 31 29 28 29 27 27 29 34 31 28 33 30 29 25 25 22 20 21
28 30 32 29 28 29 28 29 29 29 28 26 24 23 24 27 28 26 31 30 28 29 29 29 28 28 28 27 22 22 26 26 28 29 27 27 31 28 26 23 21 21 18
30 28 30 30 29 29 27 26 28 25 25 25 27 26 24 26 26 25 28 28 28 29 28 29 31 31 29 29 27 21 23 28 30 27 19 19 26 23 22 14 11 19 18
Wind_Direction
33 25 24 21 22 25 27 26 21 18 12 14 10 17 16 16 19 31 316 346 345 339 344 348 356 13 28 1 332 319 309 302 317 330 337 332 336 333 324 323 318 303 271
19 19 20 19 20 24 28 25 17 13 9 10 5 5 14 8 19 17 10 325 344 345 347 354 359 4 12 2 349 332 328 304 292 304 316 325 320 309 309 308 300 293 294
3 8 16 16 14 21 23 19 15 11 7 6 3 353 357 6 3 352 348 339 337 337 344 343 344 347 348 346 349 350 345 331 316 292 296 313 320 318 318 318 310 297 292
345 1 11 8 9 14 13 10 9 11 6 359 358 347 346 344 340 328 343 326 312 312 330 330 341 341 339 337 336 338 343 336 316 292 276 282 302 307 314 313 312 311 292
339 354 0 3 8 9 8 7 3 0 1 356 354 344 338 331 325 318 331 322 314 329 332 326 343 345 348 345 334 330 329 332 335 299 286 277 288 305 308 305 308 310 283
332 347 357 3 7 5 360 360 359 357 355 352 352 348 327 320 323 307 322 322 313 320 330 330 337 343 339 340 334 326 322 323 316 324 326 322 299 294 292 298 301 313 312
315 336 355 2 0 359 357 356 355 353 351 352 360 349 346 332 334 323 318 317 313 313 320 325 322 333 329 330 330 331 321 315 315 303 313 324 311 308 298 301 305 315 317
278 309 349 360 359 357 351 349 349 351 354 347 360 13 342 348 360 318 302 316 308 302 314 308 311 320 321 322 321 319 316 309 317 306 310 313 307 321 313 313 318 320 320
255 291 346 355 354 352 347 345 347 350 350 2 348 8 347 336 322 322 321 317 328 308 311 308 308 311 315 315 317 318 315 308 308 306 310 314 314 300 306 310 316 320 321
243 294 341 346 348 347 344 343 344 346 348 347 355 334 327 308 319 325 300 316 298 316 315 310 309 306 308 308 308 308 304 302 302 303 307 315 315 313 309 308 309 309 314
243 309 336 338 340 343 340 340 340 340 338 338 334 328 324 309 295 282 301 310 309 302 299 305 314 311 306 304 305 306 302 293 292 294 300 310 312 309 306 306 310 308 308
269 319 329 331 336 339 337 336 334 333 331 330 328 324 315 307 299 295 294 296 304 318 307 305 314 313 309 306 305 302 298 292 288 288 292 303 307 305 302 303 302 303 303
288 319 324 331 335 334 332 330 328 327 325 324 321 317 312 305 300 298 292 293 295 308 309 311 311 302 302 303 304 304 304 296 289 286 288 296 298 299 298 298 297 296 298
305 324 330 333 331 330 328 327 327 325 323 323 320 317 313 309 304 301 295 295 297 294 307 312 308 304 299 289 297 299 296 290 283 281 287 292 293 292 290 292 293 290 290
324 329 332 332 331 328 326 324 324 321 320 318 315 313 312 310 304 303 299 296 286 291 288 299 296 295 290 289 291 290 288 287 284 282 284 286 287 287 283 282 285 286 286
333 333 332 331 327 324 320 318 318 317 314 313 311 308 307 306 301 301 299 298 294 283 284 283 289 299 301 300 299 292 286 290 286 283 282 280 278 278 278 277 277 278 279
332 330 328 323 317 314 313 314 314 313 309 309 308 306 303 303 303 301 299 294 287 287 284 289 287 289 296 297 298 298 294 288 284 282 284 281 276 276 274 273 272 270 271
321 320 319 315 312 313 314 315 314 313 312 312 311 308 307 307 303 303 301 297 289 286 285 290 293 293 289 296 293 297 297 285 289 282 276 279 278 275 271 271 269 267 265
321 318 315 315 317 321 322 322 320 318 317 315 311 307 306 305 302 302 297 292 292 290 286 288 292 296 298 286 290 289 290 293 293 301 290 290 288 283 271 268 265 264 263
314 314 317 320 322 322 322 322 320 319 316 313 310 307 307 306 305 301 301 298 297 290 285 284 286 283 285 295 299 301 298 300 302 287 279 281 289 293 292 270 264 261 260
319 321 321 319 317 317 320 319 316 312 310 308 307 304 299 299 299 301 301 303 301 292 286 285 286 289 296 298 298 296 294 294 292 292 293 288 287 288 291 287 272 262 257
321 318 316 315 315 313 311 311 311 309 306 303 300 300 297 298 302 300 298 302 302 299 291 289 288 288 288 293 296 295 297 296 294 296 293 287 275 277 281 288 284 272 258
320 319 317 313 308 306 309 311 313 308 305 304 304 296 294 295 295 294 295 292 293 298 289 286 290 290 292 296 296 291 291 291 289 290 292 294 290 280 277 276 274 268 262
320 316 312 309 307 309 311 310 314 309 307 306 301 294 291 292 291 291 290 290 293 293 296 290 288 290 294 285 289 292 292 292 287 283 286 288 296 298 294 276 260 260 248
314 314 312 305 301 301 303 305 308 308 304 301 292 290 290 290 294 297 293 297 296 293 294 293 290 290 293 297 289 289 286 290 297 294 294 292 289 292 291 288 273 255 249
312 304 300 301 301 297 297 294 297 300 296 295 298 298 296 296 300 297 294 298 297 293 295 291 287 285 288 288 289 287 289 292 294 302 308 294 293 291 289 288 280 265 258
Height
1543 1542 1541 1540 1540 1538 1537 1535 1534 1532 1531 1529 1527 1525 1524 1523 1522 1522 1519 1518 1517 1516 1514 1513 1510 1509 1509 1507 1506 1504 1502 1501 1499 1498 1496 1495 1495 1494 1493 1492 1491 1490 1490
1543 1542 1541 1540 1540 1539 1537 1536 1534 1532 1531 1529 1528 1527 1525 1524 1524 1523 1521 1517 1516 1515 1513 1512 1510 1509 1507 1505 1504 1502 1501 1499 1498 1497 1496 1495 1494 1494 1492 1491 1490 1489 1489
1542 1542 1541 1541 1540 1539 1537 1536 1535 1533 1531 1530 1528 1527 1525 1524 1524 1524 1522 1520 1517 1514 1513 1511 1510 1508 1506 1504 1502 1501 1499 1497 1496 1495 1495 1494 1493 1492 1491 1489 1488 1487 1486
1542 1541 1541 1540 1539 1538 1537 1536 1534 1533 1531 1530 1528 1526 1524 1523 1523 1522 1521 1520 1518 1515 1512 1510 1509 1506 1505 1503 1501 1499 1497 1495 1494 1494 1493 1493 1492 1490 1490 1488 1486 1484 1483
1541 1541 1540 1540 1539 1538 1537 1536 1534 1532 1530 1529 1527 1525 1524 1523 1522 1521 1521 1519 1517 1514 1512 1510 1507 1505 1503 1501 1499 1498 1496 1493 1492 1491 1491 1491 1491 1489 1488 1486 1484 1482 1481
1540 1540 1540 1540 1539 1538 1537 1536 1534 1533 1530 1528 1526 1525 1523 1522 1521 1520 1519 1517 1515 1514 1512 1509 1506 1504 1501 1500 1498 1496 1494 1492 1490 1489 1489 1488 1488 1487 1486 1484 1482 1480 1478
1540 1540 1539 1539 1539 1538 1537 1535 1534 1532 1530 1527 1525 1524 1522 1521 1520 1520 1519 1516 1515 1512 1511 1509 1506 1503 1501 1498 1496 1494 1492 1491 1489 1488 1487 1486 1485 1485 1484 1482 1479 1478 1475
1538 1539 1539 1539 1539 1539 1537 1536 1533 1532 1530 1527 1525 1523 1523 1522 1521 1520 1518 1516 1514 1512 1510 1508 1505 1502 1499 1496 1494 1492 1490 1489 1488 1487 1485 1484 1483 1483 1481 1479 1477 1475 1472
1537 1539 1539 1538 1537 1537 1536 1535 1533 1531 1530 1528 1527 1527 1524 1523 1519 1517 1517 1515 1513 1511 1508 1505 1503 1500 1497 1494 1492 1490 1488 1487 1486 1485 1484 1482 1481 1480 1479 1476 1474 1473 1470
1537 1537 1537 1538 1536 1535 1535 1534 1533 1531 1529 1528 1527 1527 1525 1524 1522 1517 1516 1514 1513 1510 1507 1504 1500 1497 1494 1491 1489 1488 1486 1485 1484 1483 1482 1480 1478 1477 1476 1474 1471 1469 1468
1536 1536 1536 1536 1535 1533 1534 1533 1532 1530 1529 1527 1526 1525 1523 1523 1521 1519 1513 1511 1510 1508 1504 1501 1497 1494 1492 1489 1487 1485 1483 1482 1481 1480 1480 1478 1476 1474 1473 1471 1468 1466 1464
1535 1534 1534 1535 1533 1532 1533 1531 1530 1529 1527 1526 1525 1524 1522 1522 1519 1517 1514 1509 1506 1501 1500 1497 1494 1492 1489 1486 1484 1483 1481 1479 1478 1477 1476 1475 1473 1471 1469 1467 1465 1463 1462
1533 1532 1533 1532 1532 1531 1531 1529 1528 1527 1525 1523 1523 1521 1519 1518 1516 1513 1510 1505 1502 1499 1495 1492 1491 1489 1487 1485 1482 1480 1479 1477 1475 1474 1472 1470 1469 1467 1466 1464 1462 1460 1458
1531 1531 1530 1529 1530 1529 1529 1527 1525 1524 1523 1521 1520 1518 1516 1515 1513 1510 1508 1504 1498 1496 1493 1491 1490 1487 1484 1480 1479 1476 1474 1472 1471 1470 1468 1466 1464 1462 1461 1460 1459 1456 1454
1529 1528 1528 1527 1527 1527 1526 1525 1523 1521 1519 1518 1516 1514 1512 1510 1508 1506 1503 1501 1498 1491 1488 1487 1485 1483 1480 1478 1475 1472 1470 1468 1466 1463 1461 1460 1459 1457 1456 1455 1454 1452 1451
1527 1526 1525 1525 1525 1524 1523 1522 1519 1517 1516 1514 1512 1510 1508 1505 1503 1501 1498 1495 1493 1489 1480 1482 1480 1477 1474 1471 1468 1466 1463 1461 1459 1457 1454 1453 1452 1450 1450 1449 1448 1447 1446
1525 1524 1522 1521 1522 1521 1520 1518 1515 1513 1512 1509 1507 1504 1502 1501 1497 1495 1492 1490 1487 1485 1478 1474 1474 1471 1469 1466 1462 1460 1457 1455 1452 1451 1448 1446 1444 1444 1443 1443 1442 1441 1441
1522 1521 1519 1519 1519 1517 1516 1512 1510 1508 1506 1503 1501 1499 1496 1494 1492 1489 1487 1484 1482 1479 1475 1468 1467 1465 1463 1461 1457 1454 1452 1448 1445 1444 1442 1440 1438 1436 1435 1435 1435 1435 1434
1520 1517 1516 1516 1515 1513 1511 1508 1505 1502 1500 1498 1496 1493 1491 1489 1486 1483 1481 1478 1475 1472 1469 1464 1459 1458 1456 1454 1450 1448 1445 1441 1438 1437 1436 1434 1431 1429 1428 1428 1428 1428 1428
1515 1515 1514 1512 1510 1508 1506 1503 1500 1497 1495 1493 1491 1488 1486 1484 1481 1478 1475 1472 1468 1465 1462 1458 1454 1451 1448 1446 1444 1440 1436 1435 1432 1431 1429 1428 1426 1423 1421 1420 1420 1420 1421
1513 1512 1510 1508 1505 1503 1501 1498 1495 1492 1489 1486 1484 1482 1479 1477 1475 1472 1468 1464 1462 1459 1456 1452 1448 1444 1440 1438 1437 1435 1432 1429 1427 1424 1421 1419 1418 1417 1415 1413 1412 1413 1414
1509 1508 1506 1503 1500 1498 1496 1494 1490 1485 1482 1479 1476 1474 1472 1469 1467 1465 1462 1458 1455 1452 1449 1446 1442 1439 1435 1433 1431 1428 1426 1423 1419 1419 1415 1412 1412 1409 1408 1407 1406 1406 1406
1504 1502 1500 1498 1495 1493 1490 1486 1483 1478 1475 1471 1469 1467 1464 1462 1461 1458 1454 1451 1448 1445 1443 1439 1435 1433 1430 1429 1426 1423 1421 1418 1415 1413 1410 1403 1404 1401 1402 1400 1398 1399 1400
1499 1497 1494 1491 1488 1484 1481 1477 1474 1470 1467 1465 1462 1460 1458 1456 1453 1452 1447 1443 1441 1438 1436 1432 1429 1426 1424 1422 1420 1418 1415 1412 1409 1406 1405 1398 1397 1395 1394 1393 1391 1391 1392
1494 1490 1487 1483 1479 1476 1474 1471 1467 1463 1460 1457 1456 1455 1451 1449 1445 1444 1439 1436 1433 1430 1428 1425 1423 1420 1418 1416 1413 1411 1408 1406 1401 1399 1398 1394 1390 1389 1389 1385 1385 1383 1386
1486 1482 1478 1475 1471 1468 1466 1464 1461 1457 1453 1450 1448 1446 1443 1441 1439 1437 1433 1431 1427 1424 1423 1420 1416 1413 1412 1409 1406 1405 1403 1400 1398 1394 1392 1390 1387 1385 1382 1379 1379 1379 1380